Location: Bard
(39.9279°N, 78.6592°W)
Time: 08:12:56
(UTC+00:00)

ARIANE 6 FM1 Upper Stage - Pass Details

Date: 15 December 2025
Orbit: 522 x 610 km, 62.0° (Epoch: 14 January)

Event Time Altitude Azimuth Distance (km) Brightness Sun altitude
Rises 11:18:19 0° 216° (SW) 2,701 6.0 -13.2°
Reaches altitude 10° 11:20:32 10° 217° (SW) 1,798 5.1 -12.8°
Maximum altitude 11:24:35 83° 307° (NW) 541 2.5 -12.0°
Drops below altitude 10° 11:28:34 10° 35° (NE) 1,774 5.4 -11.3°
Sets 11:30:45 0° 36° (NE) 2,660 6.3 -10.9°
